{"data":{"norad_id":54121,"intl_designator":"2022-138J","name":"ONEWEB-0503","alt_names":[],"object_type":"PAYLOAD","status":"ACTIVE","operator":null,"country":"UK","launch_date":"2022-10-22","launch_site_code":"SRILR","launch_vehicle":null,"mission":null,"orbit_class":"UNKNOWN","rcs_meters":null,"size_class":null,"mass_kg":null,"dimensions":null,"purposes":["comms"],"wikipedia_slug":null,"has_3d_model":false,"image_url":null,"decayed_at":null,"tle_current":{"epoch":"2026-09-19T18:14:45.130848Z","epoch_age_seconds":89707,"freshness":"FRESH","line1":"1 54121U 22138J   26262.76024457  .00000084  00000+0  17730-3 0  9994","line2":"2 54121  87.9111 286.1244 0002121  94.7832 265.3543 13.19726966189295","mean_motion":13.19726966,"eccentricity":0.0002121,"inclination_deg":87.9111,"raan_deg":286.1244,"arg_perigee_deg":94.7832,"mean_anomaly_deg":265.3543,"bstar":0.0001773,"rev_number":18929,"period_min":109.11347855265,"perigee_km":1184.1587368182,"apogee_km":1187.3673432152,"semimajor_km":7563.9000400167,"source":"CELESTRAK","updated_at":"2026-09-20T09:00:44.716549Z"}}}